GW0714 Weather Reports


Display with metric or nautical units.
time (UTC)temp
F
wind
direction
speed
MPH
gust
MPH
rain 1hr
in
rain 24hr
in
rain mn
in
humidity
%
barometer
mb
20260906192030 75 14 5.0 12.0 0.00 0.00 0.00 35 1015.0
20260906191548 75 113 2.0 9.0 0.00 0.00 0.00 38 1015.1
20260906191030 75 125 1.0 9.0 0.00 0.00 0.00 36 1015.1
20260906190531 75 56 4.0 11.0 0.00 0.00 0.00 36 1015.1
20260906190050 75 19 2.0 11.0 0.00 0.00 0.00 36 1015.1
20260906185531 75 306 3.0 11.0 0.00 0.00 0.00 35 1015.2
20260906185030 75 39 2.0 11.0 0.00 0.00 0.00 34 1015.2
20260906184548 74 317 2.0 10.0 0.00 0.00 0.00 36 1015.2
20260906184027 74 317 4.0 10.0 0.00 0.00 0.00 35 1015.2
20260906183532 74 338 4.0 10.0 0.00 0.00 0.00 37 1015.2
20260906183044 73 316 4.0 10.0 0.00 0.00 0.00 36 1015.2
20260906182534 73 324 2.0 10.0 0.00 0.00 0.00 37 1015.1
20260906182031 73 20 2.0 10.0 0.00 0.00 0.00 36 1015.2
20260906181557 73 28 4.0 10.0 0.00 0.00 0.00 37 1015.3
20260906181034 72 17 2.0 9.0 0.00 0.00 0.00 36 1015.2
20260906180528 72 22 2.0 9.0 0.00 0.00 0.00 37 1015.4
20260906180105 71 0 2.0 9.0 0.00 0.00 0.00 37 1015.4
20260906175529 71 352 3.0 9.0 0.00 0.00 0.00 36 1015.3
20260906175032 71 319 1.0 6.0 0.00 0.00 0.00 36 1015.4
20260906174547 70 352 2.0 6.0 0.00 0.00 0.00 38 1015.4
20260906174031 70 339 1.0 6.0 0.00 0.00 0.00 41 1015.4
20260906173528 70 347 1.0 5.0 0.00 0.00 0.00 39 1015.3
20260906173043 69 338 1.0 8.0 0.00 0.00 0.00 41 1015.2
20260906172542 69 310 2.0 8.0 0.00 0.00 0.00 39 1015.3
20260906172030 69 0 0.0 5.0 0.00 0.00 0.00 39 1015.3
20260906171559 69 0 0.0 4.0 0.00 0.00 0.00 40 1015.3
20260906171030 69 346 1.0 6.0 0.00 0.00 0.00 40 1015.2
20260906170531 68 285 1.0 6.0 0.00 0.00 0.00 39 1015.2
20260906170103 68 330 1.0 4.0 0.00 0.00 0.00 43 1015.2
20260906165527 68 335 1.0 5.0 0.00 0.00 0.00 44 1015.2
20260906165030 67 0 0.0 5.0 0.00 0.00 0.00 49 1015.2
20260906164546 67 0 0.0 5.0 0.00 0.00 0.00 48 1015.2
20260906164031 66 240 1.0 3.0 0.00 0.00 0.00 52 1015.2
20260906163529 66 0 0.0 3.0 0.00 0.00 0.00 52 1015.2
20260906163109 66 0 0.0 2.0 0.00 0.00 0.00 54 1015.2
20260906162533 65 0 0.0 4.0 0.00 0.00 0.00 54 1015.2
20260906162031 64 0 0.0 4.0 0.00 0.00 0.00 56 1015.2
20260906161549 64 343 1.0 7.0 0.00 0.00 0.00 56 1015.3
20260906161031 64 303 1.0 7.0 0.00 0.00 0.00 57 1015.3
20260906160530 64 0 0.0 3.0 0.00 0.00 0.00 59 1015.2
20260906160053 64 0 0.0 3.0 0.00 0.00 0.00 60 1015.2
20260906155530 63 227 0.0 3.0 0.00 0.00 0.00 60 1015.1
20260906155034 63 0 0.0 2.0 0.00 0.00 0.00 62 1015.1
20260906154546 63 0 0.0 2.0 0.00 0.00 0.00 63 1015.2
20260906154030 62 0 0.0 2.0 0.00 0.00 0.00 64 1015.0
20260906153529 62 281 0.0 2.0 0.00 0.00 0.00 64 1015.1
20260906153052 61 265 0.0 2.0 0.00 0.00 0.00 65 1015.0
20260906152534 61 277 0.0 3.0 0.00 0.00 0.00 66 1015.0
20260906152030 60 0 0.0 3.0 0.00 0.00 0.00 67 1015.0
20260906151549 60 279 0.0 2.0 0.00 0.00 0.00 67 1015.1
20260906151029 60 274 0.0 4.0 0.00 0.00 0.00 68 1015.0
20260906150530 60 250 1.0 4.0 0.00 0.00 0.00 68 1015.1
20260906150047 59 291 0.0 2.0 0.00 0.00 0.00 68 1015.1
20260906145530 59 0 0.0 2.0 0.00 0.00 0.00 69 1015.0
20260906145031 59 0 0.0 3.0 0.00 0.00 0.00 69 1015.1
20260906144551 58 252 0.0 3.0 0.00 0.00 0.00 69 1015.0
20260906144030 58 234 0.0 2.0 0.00 0.00 0.00 70 1015.0
20260906143530 58 248 0.0 2.0 0.00 0.00 0.00 70 1014.8
20260906143052 58 263 0.0 2.0 0.00 0.00 0.00 71 1014.8
20260906142530 57 275 0.0 2.0 0.00 0.00 0.00 71 1014.7
20260906142049 57 0 0.0 2.0 0.00 0.00 0.00 71 1014.7
20260906141549 57 0 0.0 2.0 0.00 0.00 0.00 71 1014.7
20260906141030 57 0 0.0 1.0 0.00 0.00 0.00 71 1014.6
20260906140531 57 0 0.0 1.0 0.00 0.00 0.00 71 1014.6
20260906140050 57 0 0.0 1.0 0.00 0.00 0.00 71 1014.6
20260906135531 57 0 0.0 1.0 0.00 0.00 0.00 71 1014.6
20260906135030 57 0 0.0 2.0 0.00 0.00 0.00 71 1014.6
20260906134548 57 0 0.0 2.0 0.00 0.00 0.00 71 1014.5
20260906134031 57 0 0.0 2.0 0.00 0.00 0.00 70 1014.4
20260906133535 57 0 0.0 2.0 0.00 0.00 0.00 70 1014.4
20260906133111 57 0 0.0 2.0 0.00 0.00 0.00 70 1014.3
20260906132530 57 258 0.0 2.0 0.00 0.00 0.00 70 1014.4
20260906132030 57 0 0.0 3.0 0.00 0.00 0.00 70 1014.2
20260906131547 57 254 0.0 3.0 0.00 0.00 0.00 71 1014.2
20260906131030 57 263 0.0 2.0 0.00 0.00 0.00 71 1014.2
20260906130531 57 0 0.0 3.0 0.00 0.00 0.00 71 1014.2
20260906130050 57 232 0.0 3.0 0.00 0.00 0.00 71 1014.2
20260906125531 57 278 0.0 2.0 0.00 0.00 0.00 72 1014.1
20260906125031 57 246 0.0 2.0 0.00 0.00 0.00 72 1014.1
20260906124551 57 0 0.0 2.0 0.00 0.00 0.00 72 1014.1
20260906124032 57 0 0.0 2.0 0.00 0.00 0.00 72 1014.1
20260906123532 56 0 0.0 2.0 0.00 0.00 0.00 72 1014.1
20260906123049 57 245 0.0 2.0 0.00 0.00 0.00 72 1014.1
20260906122529 57 250 0.0 2.0 0.00 0.00 0.00 71 1014.1
20260906122029 57 0 0.0 1.0 0.00 0.00 0.00 71 1014.1
20260906121546 56 0 0.0 1.0 0.00 0.00 0.00 71 1014.0
20260906121031 56 0 0.0 1.0 0.00 0.00 0.00 72 1014.1
20260906120530 56 0 0.0 1.0 0.00 0.00 0.00 72 1014.1
20260906120043 56 0 0.0 1.0 0.00 0.00 0.00 72 1014.1
20260906115531 56 0 0.0 1.0 0.00 0.00 0.00 72 1014.2
20260906115031 56 0 0.0 1.0 0.00 0.00 0.00 72 1014.2
20260906114553 56 0 0.0 2.0 0.00 0.00 0.00 71 1014.2
20260906114028 56 0 0.0 2.0 0.00 0.00 0.00 72 1014.2
20260906113530 56 0 0.0 1.0 0.00 0.00 0.00 72 1014.2
20260906113050 56 233 0.0 2.0 0.00 0.00 0.00 72 1014.2
20260906112530 56 0 0.0 2.0 0.00 0.00 0.00 72 1014.1
20260906112032 56 0 0.0 1.0 0.00 0.00 0.00 72 1014.2
20260906111601 56 0 0.0 1.0 0.00 0.00 0.00 71 1014.2
20260906111032 56 0 0.0 1.0 0.00 0.00 0.00 71 1014.1
20260906110532 57 0 0.0 1.0 0.00 0.00 0.00 71 1014.1
20260906110049 57 0 0.0 1.0 0.00 0.00 0.00 71 1014.1
20260906105530 57 0 0.0 1.0 0.00 0.00 0.00 70 1014.1
20260906105030 57 0 0.0 1.0 0.00 0.00 0.00 70 1014.1
20260906104546 57 0 0.0 1.0 0.00 0.00 0.00 69 1014.1
20260906104031 57 0 0.0 1.0 0.00 0.00 0.00 69 1014.1
20260906103530 57 0 0.0 1.0 0.00 0.00 0.00 69 1014.1
20260906103057 57 0 0.0 1.0 0.00 0.00 0.00 69 1014.2
20260906102531 58 0 0.0 1.0 0.00 0.00 0.00 69 1014.1
20260906102031 58 0 0.0 1.0 0.00 0.00 0.00 68 1014.2
20260906101549 58 0 0.0 2.0 0.00 0.00 0.00 68 1014.2
20260906101030 58 0 0.0 2.0 0.00 0.00 0.00 68 1014.2
20260906100528 58 0 0.0 2.0 0.00 0.00 0.00 68 1014.1
20260906100054 58 257 0.0 2.0 0.00 0.00 0.00 68 1014.2
20260906095540 58 275 0.0 1.0 0.00 0.00 0.00 68 1014.2
20260906095030 58 259 0.0 1.0 0.00 0.00 0.00 68 1014.2
20260906094548 58 0 0.0 2.0 0.00 0.00 0.00 68 1014.2
20260906094031 58 0 0.0 2.0 0.00 0.00 0.00 68 1014.2
20260906093531 58 0 0.0 1.0 0.00 0.00 0.00 68 1014.2
20260906093053 58 0 0.0 1.0 0.00 0.00 0.00 68 1014.2
20260906092531 58 0 0.0 1.0 0.00 0.00 0.00 69 1014.2
20260906092030 58 0 0.0 1.0 0.00 0.00 0.00 69 1014.2
20260906091551 58 0 0.0 1.0 0.00 0.00 0.00 68 1014.3
20260906091028 58 0 0.0 1.0 0.00 0.00 0.00 68 1014.3
20260906090531 58 0 0.0 1.0 0.00 0.00 0.00 68 1014.4
20260906090054 58 0 0.0 1.0 0.00 0.00 0.00 68 1014.4
20260906085532 58 0 0.0 1.0 0.00 0.00 0.00 68 1014.5
20260906085031 58 0 0.0 1.0 0.00 0.00 0.00 68 1014.6
20260906084546 59 0 0.0 1.0 0.00 0.00 0.00 67 1014.6
20260906084033 59 0 0.0 1.0 0.00 0.00 0.00 66 1014.6
20260906083531 60 0 0.0 1.0 0.00 0.00 0.00 65 1014.6
20260906083049 60 0 0.0 1.0 0.00 0.00 0.00 64 1014.7
20260906082530 60 0 0.0 1.0 0.00 0.00 0.00 64 1014.6
20260906082031 60 0 0.0 1.0 0.00 0.00 0.00 63 1014.6
20260906081550 60 0 0.0 1.0 0.00 0.00 0.00 63 1014.6
20260906081030 61 0 0.0 3.0 0.00 0.00 0.00 63 1014.6
20260906080532 61 0 0.0 3.0 0.00 0.00 0.00 62 1014.6
20260906080049 61 230 0.0 2.0 0.00 0.00 0.00 61 1014.7
20260906075530 61 0 0.0 2.0 0.00 0.00 0.00 62 1014.6
20260906075028 61 0 0.0 2.0 0.00 0.00 0.00 63 1014.7
20260906074545 61 0 0.0 2.0 0.00 0.00 0.00 62 1014.7
20260906074033 61 0 0.0 2.0 0.00 0.00 0.00 62 1014.8
20260906073530 61 0 0.0 2.0 0.00 0.00 0.00 62 1014.9
20260906073044 61 0 0.0 1.0 0.00 0.00 0.00 61 1014.8
20260906072531 61 0 0.0 2.0 0.00 0.00 0.00 61 1014.9
20260906072030 62 0 0.0 2.0 0.00 0.00 0.00 60 1014.9
20260906071554 62 0 0.0 2.0 0.00 0.00 0.00 60 1015.0
20260906071031 62 0 0.0 2.0 0.00 0.00 0.00 60 1015.0
20260906070531 61 0 0.0 2.0 0.00 0.00 0.00 60 1015.0
20260906070046 61 0 0.0 2.0 0.00 0.00 0.00 60 1015.0
20260906065530 61 0 0.0 1.0 0.00 0.00 0.00 60 1015.0
20260906065029 61 0 0.0 1.0 0.00 0.00 0.00 60 1014.9
20260906064544 61 0 0.0 1.0 0.00 0.00 0.00 61 1014.9
20260906064033 61 0 0.0 1.0 0.00 0.00 0.00 61 1015.0
20260906063531 61 0 0.0 1.0 0.00 0.00 0.00 61 1015.0
20260906063050 62 0 0.0 1.0 0.00 0.00 0.00 61 1015.1
20260906062530 62 0 0.0 1.0 0.00 0.00 0.00 58 1015.1
20260906062030 63 0 0.0 1.0 0.00 0.00 0.00 57 1015.2
20260906061549 63 0 0.0 1.0 0.00 0.00 0.00 57 1015.2
20260906061030 63 0 0.0 1.0 0.00 0.00 0.00 57 1015.1
20260906060529 63 0 0.0 1.0 0.00 0.00 0.00 56 1015.1
20260906060047 63 0 0.0 1.0 0.00 0.00 0.00 56 1015.1
20260906055530 63 0 0.0 1.0 0.00 0.00 0.00 56 1015.1
20260906055030 64 0 0.0 1.0 0.00 0.00 0.00 55 1015.0
20260906054603 64 0 0.0 1.0 0.00 0.00 0.00 54 1015.1
20260906054032 64 0 0.0 1.0 0.00 0.00 0.00 54 1015.0
20260906053531 64 0 0.0 1.0 0.00 0.00 0.00 53 1015.1
20260906053056 65 0 0.0 1.0 0.00 0.00 0.00 52 1015.0
20260906052531 65 0 0.0 1.0 0.00 0.00 0.00 51 1015.1
20260906052030 65 0 0.0 1.0 0.00 0.00 0.00 51 1015.1
20260906051603 65 0 0.0 1.0 0.00 0.00 0.00 51 1015.1
20260906051030 65 0 0.0 1.0 0.00 0.00 0.00 50 1015.1
20260906050528 66 0 0.0 1.0 0.00 0.00 0.00 50 1015.1
20260906050050 66 0 0.0 1.0 0.00 0.00 0.00 49 1015.1
20260906045531 66 0 0.0 1.0 0.00 0.00 0.00 48 1015.1
20260906045030 67 0 0.0 1.0 0.00 0.00 0.00 48 1015.1
20260906044553 67 0 0.0 0.0 0.00 0.00 0.00 47 1015.2
20260906044030 68 0 0.0 1.0 0.00 0.00 0.00 46 1015.1
20260906043533 68 0 0.0 2.0 0.00 0.00 0.00 46 1015.1
20260906043047 68 0 0.0 5.0 0.00 0.00 0.00 46 1015.0
20260906042529 68 360 1.0 5.0 0.00 0.00 0.00 45 1015.0
20260906042030 68 0 1.0 2.0 0.00 0.00 0.00 45 1014.9
20260906041552 68 324 0.0 3.0 0.00 0.00 0.00 45 1015.0
20260906041032 69 329 1.0 3.0 0.00 0.00 0.00 45 1015.0
20260906040530 69 330 1.0 3.0 0.00 0.00 0.00 45 1015.0
20260906040128 69 333 0.0 2.0 0.00 0.00 0.00 45 1014.8
20260906035531 69 352 0.0 2.0 0.00 0.00 0.00 45 1014.8
20260906035032 69 331 0.0 2.0 0.00 0.00 0.00 45 1014.8
20260906034600 69 324 0.0 2.0 0.00 0.00 0.00 45 1014.8
20260906034032 69 0 0.0 3.0 0.00 0.00 0.00 45 1014.7
20260906033530 69 326 0.0 3.0 0.00 0.00 0.00 45 1014.6
20260906033101 69 331 0.0 3.0 0.00 0.00 0.00 44 1014.6
20260906032532 69 333 0.0 2.0 0.00 0.00 0.00 44 1014.5
20260906032030 69 0 0.0 0.0 0.00 0.00 0.00 44 1014.4
20260906031550 70 0 0.0 0.0 0.00 0.00 0.00 44 1014.4
20260906031031 70 0 0.0 0.0 0.00 0.00 0.00 44 1014.4
20260906030531 70 0 0.0 0.0 0.00 0.00 0.00 44 1014.4
20260906030050 70 0 0.0 1.0 0.00 0.00 0.00 44 1014.4
20260906025530 70 0 0.0 2.0 0.00 0.00 0.00 44 1014.4
20260906025030 70 0 0.0 3.0 0.00 0.00 0.00 44 1014.4
20260906024554 70 0 1.0 3.0 0.00 0.00 0.00 43 1014.4
20260906024034 71 0 1.0 3.0 0.00 0.00 0.00 43 1014.4
20260906023531 71 351 1.0 3.0 0.00 0.00 0.00 43 1014.4
20260906023100 71 5 1.0 3.0 0.00 0.00 0.00 43 1014.4
20260906022532 71 331 0.0 3.0 0.00 0.00 0.00 43 1014.4
20260906022029 71 340 0.0 3.0 0.00 0.00 0.00 42 1014.4
20260906021549 72 22 1.0 3.0 0.00 0.00 0.00 42 1014.4
20260906021028 72 329 1.0 3.0 0.00 0.00 0.00 41 1014.4
20260906020530 72 0 0.0 3.0 0.00 0.00 0.00 41 1014.4
20260906020046 73 0 0.0 3.0 0.00 0.00 0.00 41 1014.4
20260906015530 73 0 0.0 2.0 0.00 0.00 0.00 41 1014.5
20260906015030 73 0 0.0 3.0 0.00 0.00 0.00 40 1014.4
20260906014553 73 0 0.0 6.0 0.00 0.00 0.00 40 1014.4
20260906014029 73 350 2.0 6.0 0.00 0.00 0.00 40 1014.3
20260906013530 74 352 2.0 4.0 0.00 0.00 0.00 41 1014.4
20260906013049 74 351 2.0 4.0 0.00 0.00 0.00 39 1014.4
20260906012530 74 0 0.0 4.0 0.00 0.00 0.00 40 1014.5
20260906012029 74 321 2.0 4.0 0.00 0.00 0.00 40 1014.6
20260906011549 74 11 1.0 4.0 0.00 0.00 0.00 40 1014.6
20260906011030 74 0 0.0 3.0 0.00 0.00 0.00 39 1014.6
20260906010530 74 325 1.0 3.0 0.00 0.00 0.00 38 1014.6
20260906010045 75 0 1.0 4.0 0.00 0.00 0.00 39 1014.6
20260906005530 74 0 1.0 4.0 0.00 0.00 0.00 38 1014.6
20260906005028 75 102 1.0 9.0 0.00 0.00 0.00 39 1014.6
20260906004553 75 20 3.0 9.0 0.00 0.00 0.00 38 1014.7
20260906004027 75 321 1.0 5.0 0.00 0.00 0.00 38 1014.6
20260906003532 75 327 1.0 5.0 0.00 0.00 0.00 39 1014.7
20260906003055 74 352 1.0 5.0 0.00 0.00 0.00 40 1014.7
20260906002529 74 0 0.0 4.0 0.00 0.00 0.00 40 1014.7
20260906002030 74 0 1.0 4.0 0.00 0.00 0.00 39 1014.7
20260906001551 74 352 1.0 5.0 0.00 0.00 0.00 38 1014.7
20260906001029 74 18 1.0 5.0 0.00 0.00 0.00 40 1014.8
20260906000530 74 329 1.0 5.0 0.00 0.00 0.00 39 1014.7
20260906000047 74 71 1.0 5.0 0.00 0.00 0.00 38 1014.7
20260905235531 75 37 1.0 8.0 0.00 0.00 0.00 39 1014.6
20260905235030 75 302 0.0 8.0 0.00 0.00 0.00 37 1014.7
20260905234546 75 44 2.0 8.0 0.00 0.00 0.00 37 1014.7
20260905234030 75 334 0.0 3.0 0.00 0.00 0.00 37 1014.6
20260905233530 75 0 0.0 4.0 0.00 0.00 0.00 37 1014.7
20260905233058 75 0 0.0 6.0 0.00 0.00 0.00 39 1014.7
20260905232529 76 319 1.0 6.0 0.00 0.00 0.00 38 1014.6
20260905232029 76 23 0.0 5.0 0.00 0.00 0.00 36 1014.7
20260905231550 77 25 1.0 5.0 0.00 0.00 0.00 36 1014.7
20260905231030 77 0 0.0 9.0 0.00 0.00 0.00 35 1014.8
20260905230530 77 59 2.0 9.0 0.00 0.00 0.00 35 1014.9
20260905230047 77 333 2.0 7.0 0.00 0.00 0.00 35 1014.9
20260905225530 76 109 1.0 5.0 0.00 0.00 0.00 36 1015.0
20260905223528 77 13 1.0 9.0 0.00 0.00 0.00 34 1015.0
20260905223050 77 321 3.0 9.0 0.00 0.00 0.00 34 1015.0
20260905222530 77 21 4.0 8.0 0.00 0.00 0.00 33 1014.9
20260905222029 76 0 2.0 7.0 0.00 0.00 0.00 35 1015.0
20260905221550 75 12 1.0 8.0 0.00 0.00 0.00 37 1015.0
20260905221029 76 30 3.0 8.0 0.00 0.00 0.00 35 1015.2
20260905220527 76 315 2.0 6.0 0.00 0.00 0.00 35 1015.2
20260905220056 76 14 2.0 6.0 0.00 0.00 0.00 32 1015.3
20260905215530 76 0 0.0 3.0 0.00 0.00 0.00 32 1015.3
20260905215028 75 327 0.0 7.0 0.00 0.00 0.00 33 1015.4
20260905214555 74 344 0.0 7.0 0.00 0.00 0.00 32 1015.4
20260905214026 73 0 1.0 4.0 0.00 0.00 0.00 31 1015.5
20260905213530 73 140 1.0 8.0 0.00 0.00 0.00 33 1015.5
20260905213050 73 9 1.0 8.0 0.00 0.00 0.00 31 1015.6
20260905212535 73 348 3.0 8.0 0.00 0.00 0.00 30 1015.5
20260905212029 73 360 1.0 6.0 0.00 0.00 0.00 32 1015.5
20260905211548 73 329 1.0 7.0 0.00 0.00 0.00 33 1015.5
20260905211032 73 48 3.0 7.0 0.00 0.00 0.00 34 1015.6
20260905210530 72 344 2.0 7.0 0.00 0.00 0.00 36 1015.5
20260905210058 72 325 1.0 8.0 0.00 0.00 0.00 37 1015.6
20260905205529 72 338 2.0 8.0 0.00 0.00 0.00 37 1015.6
20260905205029 72 5 1.0 4.0 0.00 0.00 0.00 37 1015.6
20260905204546 71 328 0.0 4.0 0.00 0.00 0.00 41 1015.6
20260905204027 71 0 0.0 7.0 0.00 0.00 0.00 41 1015.7
20260905203527 71 332 2.0 7.0 0.00 0.00 0.00 40 1015.7
20260905203043 71 332 2.0 6.0 0.00 0.00 0.00 42 1015.6
20260905202527 70 5 3.0 8.0 0.00 0.00 0.00 44 1015.7
20260905202027 70 26 3.0 8.0 0.00 0.00 0.00 45 1015.6
20260905201552 70 28 1.0 5.0 0.00 0.00 0.00 46 1015.6
20260905201028 70 360 1.0 4.0 0.00 0.00 0.00 45 1015.6
20260905200529 70 101 0.0 5.0 0.00 0.00 0.00 47 1015.6
20260905200049 70 340 0.0 8.0 0.00 0.00 0.00 46 1015.6
20260905195528 70 345 3.0 8.0 0.00 0.00 0.00 45 1015.6
20260905195030 71 5 2.0 7.0 0.00 0.00 0.00 45 1015.6
20260905194548 72 0 1.0 8.0 0.00 0.00 0.00 44 1015.7
20260905194029 72 9 3.0 8.0 0.00 0.00 0.00 44 1015.6
20260905193528 72 315 4.0 8.0 0.00 0.00 0.00 45 1015.6
20260905193042 72 40 1.0 6.0 0.00 0.00 0.00 47 1015.5
20260905192530 71 0 0.0 7.0 0.00 0.00 0.00 49 1015.6